Glendale Luke AFB, AZ

5:41 PM MST on November 21, 2019 (GMT -0700)
Luke Air Force Base

Weather History for KLUF - July, 2019

Change the Weather History Date:

Thursday, July 18, 2019

  Actual Average Record
Temperature  
Mean Temperature 94 °F -  
Max Temperature 107 °F 108 °F 116 °F (1947)
Min Temperature 82 °F 75 °F 65 °F (1940)
Cooling Degree Days 30    
Growing Degree Days 44 (Base 50)    
Moisture  
Dew Point 44 °F    
Average Humidity 18    
Maximum Humidity 34    
Minimum Humidity 8    
Precipitation  
Precipitation 0.00 in - - ()
Sea Level Pressure  
Sea Level Pressure 29.79 in    
Wind  
Wind Speed 8 mph (WSW)    
Max Wind Speed 18 mph    
Max Gust Speed 23 mph    
Visibility 10 miles    
Events      
Averages and records for this station are not official NWS values.
T = Trace of Precipitation, MM = Missing Value Source: NWS Daily Summary

Daily Weather History Graph

Daily Weather History Graph

Search for Another Location

Airport or City:

Astronomy

Jul. 18, 2019 Rise Set
Actual Time 5:32 AM MST 7:38 PM MST
Civil Twilight 5:04 AM MST 8:06 PM MST
Nautical Twilight 4:29 AM MST 8:41 PM MST
Astronomical Twilight 3:53 AM MST 9:17 PM MST
Moon 9:10 PM MST (7/18) 7:03 AM MST (7/18)
Length of Visible Light 15h 02m
Length of Day
14h 06m
Waning Gibbous, 97% of the Moon is Illuminated
Jul 18
Waning Gibbous
Jul 24
Last Quarter
Jul 31
New
Aug 7
First Quarter
Aug 15
Full

Hourly Weather History & Observations

Time (MST) Temp. Heat Index Dew Point Humidity Pressure Visibility Wind Dir Wind Speed Gust Speed Precip Events Conditions
12:56 AM 88.9 °F 87.3 °F 55.9 °F 33% 29.81 in 10.0 mi West 8.1 mph - N/A   Clear
1:56 AM 88.0 °F - 51.6 °F 29% 29.81 in 10.0 mi WSW 6.9 mph - N/A   Clear
2:56 AM 85.3 °F - 48.4 °F 28% 29.81 in 10.0 mi SW 5.8 mph - N/A   Clear
3:56 AM 83.7 °F - 47.1 °F 28% 29.83 in 10.0 mi WSW 3.5 mph - N/A   Clear
4:56 AM 82.6 °F - 50.5 °F 33% 29.84 in 10.0 mi WNW 4.6 mph - N/A   Clear
5:56 AM 83.8 °F - 49.1 °F 30% 29.85 in 10.0 mi SSW 4.6 mph - N/A   Clear
6:56 AM 83.5 °F - 52.2 °F 34% 29.86 in 10.0 mi Calm Calm - N/A   Clear
7:58 AM 88.0 °F - 51.6 °F 29% 29.87 in 10.0 mi South 3.5 mph - N/A   Clear
8:58 AM 92.1 °F - 48.9 °F 23% 29.87 in 10.0 mi WSW 6.9 mph - N/A   Clear
9:56 AM 94.3 °F - 46.9 °F 20% 29.86 in 10.0 mi WSW 4.6 mph - N/A   Clear
10:56 AM 97.7 °F - 43.9 °F 16% 29.84 in 10.0 mi South 10.4 mph - N/A   Unknown
11:24 AM 98.6 °F - 39.2 °F 13% 29.88 in 10.0 mi SSW 8.1 mph - N/A   Light Drizzle
11:30 AM 100.4 °F - 41.0 °F 13% 29.88 in 10.0 mi South 9.2 mph - N/A   Partly Cloudy
11:58 AM 99.7 °F - 41.9 °F 14% 29.87 in 10.0 mi SSW 6.9 mph - N/A   Partly Cloudy
12:58 PM 102.0 °F - 45.5 °F 15% 29.84 in 10.0 mi WSW 11.5 mph - N/A   Partly Cloudy
1:27 PM 102.2 °F - 46.4 °F 15% 29.83 in 10.0 mi WSW 11.5 mph 19.6 mph N/A   Scattered Clouds
1:58 PM 103.8 °F - 46.9 °F 15% 29.81 in 10.0 mi SW 15.0 mph 18.4 mph N/A   Partly Cloudy
2:58 PM 106.2 °F - 46.9 °F 14% 29.78 in 10.0 mi West 13.8 mph - N/A   Partly Cloudy
3:34 PM 105.8 °F - 42.8 °F 12% 29.76 in 10.0 mi West 13.8 mph 18.4 mph N/A   Clear
3:40 PM 105.8 °F - 42.8 °F 12% 29.75 in 10.0 mi WSW 13.8 mph - N/A   Clear
3:58 PM 106.9 °F - 41.2 °F 11% 29.74 in 10.0 mi SW 15.0 mph 20.7 mph N/A   Partly Cloudy
4:23 PM 107.6 °F - 39.2 °F 10% 29.74 in 10.0 mi West 18.4 mph 23.0 mph N/A   Partly Cloudy
4:58 PM 107.2 °F - 36.3 °F 9% 29.73 in 10.0 mi West 11.5 mph - N/A   Clear
5:58 PM 106.9 °F - 33.1 °F 8% 29.72 in 10.0 mi West 12.7 mph - N/A   Clear
6:58 PM 105.3 °F - 37.6 °F 10% 29.68 in 10.0 mi WSW 9.2 mph - N/A   Clear
7:58 PM 101.3 °F - 39.2 °F 12% 29.68 in 10.0 mi SW 12.7 mph - N/A   Clear
8:58 PM 98.4 °F - 39.0 °F 13% 29.70 in 10.0 mi WSW 9.2 mph - N/A   Partly Cloudy
9:58 PM 96.8 °F - 37.8 °F 13% 29.74 in 10.0 mi SW 9.2 mph - N/A   Clear
10:58 PM 94.8 °F - 39.9 °F 15% 29.70 in 10.0 mi WSW 8.1 mph - N/A   Partly Cloudy
11:58 PM 94.8 °F - 50.0 °F 22% 29.71 in 10.0 mi SW 13.8 mph - N/A   Mostly Cloudy